Location: Unspecified
(33.4390°N, 83.7350°W)
Time: 06:21:57
(UTC-04:00)

Daily predictions for brighter satellites

Satellite Brightness Start Highest point End
(mag) Time Altitude Azimuth Time Altitude Azimuth Time Altitude Azimuth
Cosmos 1898 Rocket 3.5 20:06:08 10° S 20:11:25 74° ESE 20:16:43 10° NNE
Cosmos 990 Rocket 4.4 20:07:43 10° S 20:12:36 40° E 20:17:29 10° NNE
Tiangong 1 3.3 20:12:34 10° NNW 20:14:21 15° N 20:16:08 10° NE
Cosmos 1378 4.2 20:11:37 10° NNE 20:14:46 25° ENE 20:17:54 10° SE
FENGYUN 3A 4.0 20:11:43 10° SE 20:16:48 43° ENE 20:21:52 10° N
H-2A R/B 3.9 20:17:38 10° SE 20:20:49 25° ENE 20:24:03 10° NNE
Meteor 1-24 Rocket 4.3 20:19:21 10° N 20:24:24 36° ENE 20:29:34 10° SE
NOSS 3-4 (A) 4.2 20:21:22 10° NW 20:28:31 73° WSW 20:36:04 10° SSE
NOSS 3-4 (C) 4.2 20:21:28 10° NW 20:28:37 74° WSW 20:36:11 10° SSE
Cosmos 1821 Rocket 4.0 20:22:55 10° S 20:29:16 70° E 20:35:36 10° N
Cosmos 1707 2.6 20:25:43 10° N 20:29:36 72° E 20:33:27 10° SSE
Meteor 2-5 Rocket 3.7 20:25:01 10° N 20:30:45 75° E 20:36:35 10° SSE
Geosat 4.0 20:30:04 10° NNE 20:35:01 58° ESE 20:39:56 10° SSW
ALOS 2.2 20:30:56 10° SSE 20:35:33 69° ENE 20:40:13 10° N
HJ-1C 3.4 20:32:48 10° SSE 20:36:07 58° ENE 20:39:28 10° N
Cosmos 1535 Rocket 4.5 20:30:05 10° S 20:36:17 79° E 20:42:35 10° N
CZ-3B DEB 3.7 20:23:49 10° SW 20:37:48 71° NW 20:44:01 10° NE
Cosmos 2082 Rocket 4.2 20:37:22 10° NE 20:38:19 10° NE 20:39:16 10° ENE
Cosmos 1812 Rocket 3.5 20:34:12 10° S 20:38:36 73° E 20:43:00 10° N
Resurs 01 Rocket 1.9 20:35:02 10° SE 20:39:13 45° ENE 20:43:27 10° N
Cosmos 1766 3.3 20:36:01 10° S 20:39:46 52° E 20:43:33 10° NNE
Cosmos 1544 4.2 20:37:51 10° SE 20:40:43 22° E 20:43:36 10° NE
Cosmos 1937 Rocket 3.7 20:39:12 10° SSW 20:44:23 76° WNW 20:49:41 10° NNE
RESURS DK-1 3.5 20:41:07 10° N 20:44:32 25° ENE 20:46:07 20° E
BREEZE-M DEB (TANK) 2.8 20:43:07 10° SSW 20:45:37 38° SE 20:51:31 10° ENE
COSMOS 2406 3.2 20:40:21 10° NNW 20:46:06 90° W 20:51:48 10° SSE
Cosmos 1605 Rocket 4.1 20:41:14 10° SSE 20:47:12 51° E 20:53:17 10° NNE
SL-27 R/B 3.3 20:46:00 10° N 20:49:12 30° ENE 20:50:28 24° ESE
Lacrosse 5 1.9 20:44:58 10° SW 20:50:02 82° NW 20:55:08 10° NE
Meteor 1-29 4.2 20:50:18 10° NE 20:52:31 23° ENE 20:52:31 23° ENE
SeaSat 1 2.7 20:51:07 10° SSE 20:56:00 70° WSW 21:00:56 10° NNW
Cosmos 1844 4.5 20:50:31 10° SW 20:56:08 57° WNW 21:01:51 10° NNE
Delta 2 Rocket 3.5 20:53:23 10° WNW 20:58:04 70° N 21:00:11 28° E
Cosmos 2123 Rocket 3.9 20:58:10 10° N 21:04:29 71° E 21:10:43 10° SSE
IUS-7 SRM-1 4.4 21:08:00 10° SSW 21:08:30 13° S 21:08:30 13° S
CZ-2D R/B 3.1 21:06:58 16° SSE 21:10:00 78° ENE 21:13:53 10° N
Cosmos 2344 4.1 21:02:39 10° SW 21:10:14 62° NW 21:18:28 10° NNE
Cosmos 1867 3.8 21:09:54 10° S 21:15:02 45° ESE 21:20:14 10° NE
Helios 1A 3.0 21:14:06 38° SE 21:15:20 54° ENE 21:19:24 10° N
Cosmos 1805 3.1 21:12:38 10° S 21:16:30 77° E 21:20:24 10° N
Helios 1B rocket 2.3 21:13:41 10° NNE 21:17:49 79° ESE 21:21:55 10° S
Yuri Rocket 3.5 21:14:38 10° WSW 21:18:33 41° S 21:19:20 37° SSE
Lacrosse 4 Rocket 4.4 21:22:41 10° W 21:25:01 15° NW 21:27:20 10° NNW
Resurs 1-3 4.2 21:22:39 10° S 21:26:56 55° W 21:31:15 10° NNW
Cosmos 372 Rocket 3.9 21:26:56 10° S 21:31:53 55° ESE 21:36:53 10° NNE
Cosmos 1758 3.7 21:36:24 10° SSW 21:40:18 60° W 21:44:15 10° N
In-Cosmos 22 4.4 21:36:47 10° NNW 21:42:02 64° W 21:46:00 17° S
SJ-11-01 4.3 21:44:05 62° NE 21:44:05 62° NE 21:48:23 10° N
Cosmos 1447 Rocket 4.3 21:37:54 10° N 21:44:03 81° E 21:46:45 36° SSE
USA 215 3.7 21:38:47 10° NE 21:45:11 60° NW 21:51:34 10° WSW
SAR-Lupe-4 4.4 21:45:20 46° WSW 21:45:27 46° W 21:48:55 10° NNW
Cosmos 1459 Rocket 3.9 21:45:23 51° SE 21:46:37 61° E 21:52:43 10° NNE
Cosmos 1939 Rocket 4.1 21:49:27 34° N 21:49:27 34° N 21:51:54 10° N
OAO 1 4.4 21:42:27 10° W 21:47:57 77° N 21:48:33 68° ENE
Cosmos 2173 Rocket 3.9 21:48:08 59° ESE 21:48:40 61° E 21:54:47 10° NNE
Cosmos 2278 Rocket 3.7 21:43:49 10° SW 21:48:58 35° WNW 21:54:10 10° N
Cosmos 1953 3.2 21:46:48 11° SSW 21:50:37 49° W 21:54:35 10° N
Tiangong 1 3.8 21:47:56 10° NW 21:48:48 17° NW 21:48:48 17° NW
CZ-3 Stage 3 3.3 21:15:34 10° W 21:52:13 79° S 21:54:41 50° ESE
Cosmos 1833 Rocket 3.5 21:48:34 10° N 21:52:40 36° NE 21:52:40 36° NE
Envisat 2.8 21:54:30 81° S 21:54:45 88° WSW 21:59:51 10° NNW
Cosmos 2297 4.0 21:55:29 10° SSW 22:01:07 65° WNW 22:06:50 10° NNE
Cosmos 1125 Rocket 4.2 21:56:50 10° SSW 22:01:52 52° WNW 22:06:57 10° N
USA 267 4.5 22:14:41 27° NNE 22:14:47 27° NNE 22:20:04 10° NNW
GP-B 4.5 22:14:49 35° W 22:15:05 36° W 22:19:11 10° NNW
ERS-1 Rocket 4.3 22:23:31 34° NNW 22:23:31 34° NNW 22:26:21 10° NNW
Cosmos 2082 Rocket 2.8 22:17:31 10° NNW 22:21:38 49° NNW 22:21:38 49° NNW
Cosmos 1818 4.4 22:22:13 10° NNW 22:26:00 46° NW 22:26:00 46° NW
